Regional Weather Roundup
Issued by NWS State College, PA

Home | Current Version | Previous Version | Text Only | Print | Product List | Glossary On
Versions: 1 2 3 4 5 6 7 8 9 10 11 12 13 14 15 16 17 18 19 20 21 22 23 24 25 26 27 28 29 30 31 32 33 34 35 36 37 38 39 40 41 42 43 44 45 46 47 48 49 50
000
ASUS41 KCTP 010710
RWRCTP

REGIONAL WEATHER ROUNDUP
NATIONAL WEATHER SERVICE STATE COLLEGE PA
200 AM EST SUN FEB 01 2015

Note: "fair" indicates few or no clouds below 12,000 feet with no
significant weather and/or obstructions to visibility.

* = STATION THAT DOES NOT REPORT PRECIPITATION /E.G. RAIN...SNOW...ETC/
    THUNDER OR FOG.

PAZ002>004-007>009-013>016-020>023-029>032-010800-
WESTERN PENNSYLVANIA

CITY           SKY/WX    TMP DP  RH WIND       PRES   REMARKS
ERIE           CLOUDY    29  19  66 S7        30.16F
MEADVILLE      CLOUDY    25  18  74 S6        30.13F
FRANKLIN*      CLOUDY    23  16  74 SW6       30.15S
NEW CASTLE     CLOUDY    28  18  66 CALM      30.18F
BEAVER COUNTY  NOT AVBL
BUTLER*        CLOUDY    27  18  69 SW3       30.18F
PITTSBURGH INT CLOUDY    29  17  61 SW7       30.17F
PITTSBURGH     CLOUDY    26  15  63 S5        30.17F
INDIANA*       CLOUDY    21  16  79 SW3       30.21S
LATROBE        CLOUDY    27  18  69 S10       30.20F
WASHINGTON CO* CLOUDY    27  16  63 SW3       30.19F
$$

PAZ004>006-010>012-017>019-024>028-033>037-041-042-045-046-049>053-010800-
CENTRAL PENNSYLVANIA

CITY           SKY/WX    TMP DP  RH WIND       PRES   REMARKS
BRADFORD       CLOUDY    21  14  74 W3        30.08F
DUBOIS         CLOUDY    20  14  77 W7        30.11F WCI  11
CLEARFIELD     CLOUDY    17  11  77 S5        30.15S WCI  10
JOHNSTOWN      CLOUDY    25  14  63 W13       30.11S WCI  14
ALTOONA        CLOUDY    24  14  65 SE6       30.16F
STATE COLLEGE  CLOUDY    22  14  71 CALM      30.18S
WILLIAMSPORT   CLOUDY    22  11  62 W6        30.21R WCI  14
SELINSGROVE    CLOUDY    14   9  80 CALM      30.23S
FT INDIANTOWN  CLOUDY    19   9  67 W5        30.23R WCI  12
CAPITAL CITY   PTCLDY    13   7  77 SW3       30.25R
HARRISBURG     PTCLDY    10   7  87 CALM      30.25R
YORK           PTCLDY     7   4  87 CALM      30.24R
$$

PAZ038>040-043-044-047-048-054-055-060>062-067>071-010800-
EASTERN PENNSYLVANIA

CITY           SKY/WX    TMP DP  RH WIND       PRES   REMARKS
SCRANTON       CLOUDY    15   6  67 CALM      30.15S
MOUNT POCONO   CLOUDY    13   5  70 W10       30.06S WCI   0
ALLENTOWN      CLOUDY    17   7  64 SW6       30.20F WCI   9
QUAKERTOWN*    CLOUDY    16   9  73 SW3       30.20S
READING        CLOUDY    20   8  60 CALM      30.23R
LANCASTER      PTCLDY    17   6  62 CALM      30.24R
COATESVILLE    SUNNY     21  10  63 W7        30.22S WCI  13
POTTSTOWN      MOCLDY    16   7  67 CALM      30.23F
BLUE BELL      CLEAR     23  10  58 CALM      30.22S
DOYLESTOWN     MOCLDY    19   8  62 SW7       30.20F WCI  10
WILLOW GROVE   NOT AVBL
NORTH PHILA    CLEAR     24   8  50 W6        30.25F
PHILADELPHIA   PTCLDY    23  11  60 SW7       30.26F WCI  15
$$


USA.gov is the U.S. government's official web portal to all federal, state and local government web resources and services.